Location: DARK SKY Beskydy - Park tmavé oblohy, www.darkskybeskydy.cz
(49.4926°N, 18.5016°E)
Time: 16:12:54
(UTC+02:00)

PCSat - Pass Details

Date: 04 August 2024
Orbit: 781 x 792 km, 67.0° (Epoch: 13 September)

Event Time Altitude Azimuth Distance (km) Brightness Sun altitude
Rises 22:28:23 0° 289° (WNW) 3,289 13.7 -16.4°
Reaches altitude 10° 22:32:06 10° 314° (NW) 2,363 13.3 -16.7°
Maximum altitude 22:34:51 14° 345° (NNW) 2,102 12.8 -17.0°
Drops below altitude 10° 22:37:37 10° 16° (NNE) 2,368 12.6 -17.2°
Sets 22:41:21 0° 42° (NE) 3,300 13.0 -17.6°
